Wind_Speed
6 9 9 8 9 8 7 6 5 5 6 6 5 4 4 5 5 6 6 6 4 4 3 2 2 4 6 5 3 1 2 3 5 5 5 5 4 5 6 5 5 5 3
6 8 11 10 10 11 10 9 8 8 8 8 7 6 6 6 6 6 6 6 6 5 4 3 2 3 6 7 5 3 2 3 5 7 7 7 5 2 6 3 5 3 2
8 9 12 12 12 13 13 12 12 11 10 9 9 8 9 8 8 8 7 6 7 6 5 4 3 1 4 6 7 5 3 2 3 5 6 8 9 8 4 4 5 3 3
7 7 12 16 15 15 15 14 14 13 12 11 11 10 10 10 10 10 8 7 7 7 7 6 6 2 2 3 4 5 4 3 2 2 4 6 8 8 7 6 5 5 4
9 6 6 11 17 16 16 15 15 15 14 13 13 12 11 10 11 11 10 9 8 9 8 9 8 6 3 2 3 4 3 3 2 4 5 6 7 7 7 7 6 6 5
12 10 8 10 15 18 19 19 18 17 17 16 15 15 13 11 11 11 11 10 10 10 11 10 11 9 6 5 4 4 4 3 3 5 7 6 7 8 8 8 7 7 6
16 15 13 12 13 14 17 19 19 18 19 18 17 16 15 15 14 13 13 12 12 12 13 13 14 12 9 8 6 5 5 6 5 4 8 9 9 9 9 9 8 8 7
14 16 18 17 16 15 15 17 18 19 20 21 20 19 19 18 17 17 15 15 15 15 15 15 15 16 12 11 10 8 7 6 6 6 8 9 9 10 10 10 10 9 9
15 16 18 20 23 23 22 22 22 22 23 23 24 24 23 21 21 20 19 18 18 18 18 17 17 18 18 15 14 12 10 9 8 7 8 10 10 12 12 12 11 11 10
14 17 18 19 21 23 25 26 26 27 27 27 26 24 25 25 23 22 22 21 20 21 21 21 20 20 20 20 18 16 14 12 11 10 9 11 11 12 13 13 13 12 12
14 14 18 20 21 22 24 25 26 27 27 26 26 26 27 27 26 24 24 24 24 23 24 24 24 24 24 23 22 19 18 16 15 13 12 12 12 12 13 14 14 14 14
18 19 19 20 23 24 25 26 27 28 29 30 29 29 28 27 27 27 25 27 27 26 26 26 27 28 27 26 25 24 21 21 20 17 16 14 14 14 14 14 15 15 15
21 22 23 23 24 26 28 29 30 31 31 33 33 32 32 32 31 31 30 29 29 29 28 28 28 28 28 26 26 26 25 25 24 22 19 18 16 16 16 15 15 14 15
21 22 24 25 25 27 28 31 33 35 36 37 37 37 38 37 36 36 35 34 33 31 30 30 30 29 29 30 29 29 29 28 28 26 24 22 20 19 17 17 16 15 15
25 26 27 28 30 32 33 33 34 35 37 39 41 41 42 40 38 39 40 38 35 32 32 32 32 31 32 32 31 32 32 31 31 30 29 26 24 22 21 19 19 17 16
27 29 31 32 33 35 36 38 38 38 39 41 41 42 44 45 40 38 39 40 38 35 34 34 33 34 34 33 34 34 33 33 34 34 33 31 28 26 25 23 21 20 19
28 30 32 34 34 36 37 39 40 41 40 40 42 44 45 45 44 43 41 40 41 40 37 36 34 33 32 34 35 35 35 36 36 36 36 35 33 30 28 27 26 24 23
30 32 34 37 39 40 40 41 41 42 44 44 41 42 43 46 47 47 47 43 40 41 38 36 33 33 33 32 34 37 39 40 39 41 40 39 36 35 35 32 30 29 26
32 34 35 34 32 30 30 33 35 37 38 40 43 42 43 45 45 49 48 47 42 42 41 40 39 37 36 36 38 37 39 39 42 49 46 44 41 35 38 33 28 29 30
32 33 33 27 28 28 31 33 34 37 38 39 41 42 45 44 45 46 49 48 48 44 42 41 40 38 39 39 40 40 37 40 45 30 46 41 42 48 39 30 30 30 32
33 33 30 27 27 32 34 33 32 33 36 38 40 42 44 48 47 45 47 48 49 49 42 40 41 41 43 42 41 38 40 39 46 49 32 30 35 28 26 31 29 33 34
32 31 28 29 30 32 35 34 35 33 31 32 35 36 37 41 43 45 44 44 47 48 44 41 40 41 40 41 39 37 40 43 35 35 36 29 32 30 26 28 32 33 32
32 28 25 26 28 32 30 31 27 28 29 26 26 29 31 33 36 40 43 44 43 46 46 42 40 42 41 43 40 36 43 36 36 37 34 40 38 36 38 35 34 33 34
27 22 19 23 27 28 26 24 24 24 24 24 30 26 26 31 31 31 38 39 42 41 41 42 42 43 43 44 42 42 41 41 37 34 31 26 28 31 27 28 31 28 31
23 17 18 22 25 24 22 23 19 20 20 22 24 24 22 25 19 21 25 29 37 41 40 42 47 43 46 47 46 42 40 39 39 38 34 32 30 31 36 38 33 28 25
17 15 17 21 22 22 20 20 22 20 15 17 23 25 23 15 12 9 11 20 30 39 44 41 22 38 49 51 48 40 37 35 35 36 37 34 36 37 34 30 34 34 28
Wind_Direction
196 212 219 211 210 216 221 222 236 251 244 243 251 269 262 276 285 286 288 285 264 243 216 251 321 350 11 31 25 22 168 170 162 160 168 166 169 180 191 194 194 183 180
229 222 220 217 220 225 228 227 231 252 255 256 262 271 273 271 283 287 281 273 251 236 233 234 285 336 6 9 16 7 10 187 178 172 171 158 124 174 188 193 179 195 229
247 236 228 227 228 229 229 235 228 240 250 259 266 279 282 285 285 297 290 262 237 227 230 238 250 260 19 14 6 3 342 290 242 190 182 176 161 209 235 188 203 251 259
261 263 238 232 234 234 236 239 245 246 249 253 258 269 278 286 287 290 289 272 246 228 227 233 216 227 321 2 3 358 344 316 283 235 207 202 210 214 208 213 241 252 254
270 269 255 242 238 236 239 241 248 253 259 263 269 270 276 276 280 286 289 274 256 242 237 236 230 229 235 283 330 334 336 319 265 242 245 236 230 230 224 230 232 233 245
268 264 248 242 245 243 240 241 245 252 256 264 271 277 272 270 275 281 281 273 262 254 244 240 223 232 244 258 283 303 309 291 248 231 245 241 247 243 237 233 232 237 236
259 261 254 246 247 252 251 250 249 250 256 261 268 274 273 275 276 277 274 269 262 258 255 251 233 233 239 248 260 277 291 293 286 227 234 240 236 240 242 241 238 242 249
265 263 256 250 250 250 255 254 257 259 261 264 264 267 267 274 281 278 273 265 261 259 257 254 246 238 242 248 251 256 264 269 276 270 253 248 246 243 241 241 242 245 250
269 265 262 256 252 254 257 259 262 262 263 266 272 272 264 267 272 272 272 267 260 257 256 255 250 246 248 253 256 255 258 261 263 260 257 259 254 252 249 246 245 245 249
268 274 271 267 263 258 257 255 256 260 264 267 267 265 266 272 271 271 268 266 263 260 256 255 254 252 251 250 252 256 257 255 258 260 255 258 258 258 256 253 253 253 254
282 273 274 275 270 266 264 262 257 258 259 264 264 264 263 268 268 269 268 265 266 263 260 258 256 254 255 255 248 250 253 256 258 259 256 256 257 256 259 260 259 258 259
283 280 273 271 274 274 272 268 265 261 258 258 256 259 263 265 266 268 269 267 265 265 264 263 261 258 257 256 252 249 252 252 253 254 257 253 258 259 256 257 261 263 264
288 289 287 283 276 274 274 274 272 269 265 261 260 257 257 259 261 263 265 266 266 267 268 267 266 262 260 257 253 251 249 250 252 253 254 257 257 259 263 263 259 261 265
284 281 281 280 277 274 271 270 271 270 268 266 263 259 258 257 256 259 260 264 264 264 265 269 268 267 264 257 253 248 248 249 250 252 253 253 256 261 260 263 265 265 264
290 290 287 284 282 281 279 275 271 270 268 266 265 263 261 257 258 258 259 259 260 261 261 265 265 266 264 262 254 252 249 249 249 250 254 255 253 256 258 260 262 264 267
294 292 292 291 289 288 286 283 279 276 272 269 267 266 264 262 255 257 260 260 256 253 259 263 264 260 261 263 259 253 252 253 252 251 252 253 253 253 254 259 260 260 261
297 296 293 291 289 286 283 280 279 278 274 270 268 266 263 263 261 253 254 256 261 260 260 261 260 261 257 265 262 258 256 254 253 254 252 249 249 250 250 253 256 257 259
300 300 298 296 294 292 291 288 286 283 281 278 273 267 263 261 258 256 251 250 253 256 255 254 255 258 260 267 264 263 258 255 250 249 249 248 244 248 246 246 250 254 255
305 304 301 299 297 297 298 297 295 291 287 281 277 271 264 259 255 252 252 248 248 249 252 252 252 256 261 260 262 264 267 264 266 252 246 245 246 242 246 240 244 252 253
308 307 307 306 304 305 305 303 297 294 291 285 280 273 267 263 256 250 247 247 246 247 246 252 253 255 259 261 263 267 262 267 263 245 250 249 254 247 243 238 252 251 246
316 312 309 308 307 308 311 305 301 297 291 286 279 272 265 262 258 252 248 244 243 245 247 249 253 254 257 260 258 257 265 262 273 282 268 241 253 248 240 246 254 255 251
316 310 304 306 308 306 305 302 302 295 295 295 291 284 276 269 265 258 251 246 243 243 244 247 250 253 254 255 253 262 256 265 268 271 264 261 244 243 247 254 256 255 253
314 303 300 302 304 308 306 304 304 312 305 303 297 292 286 277 271 264 256 245 243 243 242 243 249 251 253 250 249 250 261 266 266 263 264 265 274 268 256 249 255 257 261
310 300 297 304 307 308 305 309 316 310 307 307 298 289 288 283 275 268 261 255 243 243 240 243 247 249 246 241 248 250 257 261 265 261 257 259 265 260 246 240 245 251 255
311 294 297 301 306 318 315 305 317 325 319 312 308 301 303 296 292 286 268 262 246 242 241 240 245 241 242 245 240 243 244 249 252 261 265 263 265 252 252 247 249 242 252
310 294 293 294 298 308 320 321 316 328 329 334 322 312 295 294 301 313 290 269 253 248 245 240 255 249 229 238 240 235 242 247 249 255 262 266 264 263 256 255 251 256 256
Height
3176 3176 3177 3178 3178 3179 3179 3180 3179 3179 3178 3177 3176 3175 3174 3174 3173 3172 3171 3171 3170 3170 3169 3169 3169 3168 3166 3164 3163 3162 3162 3162 3161 3161 3162 3162 3163 3163 3163 3163 3163 3163 3163
3175 3176 3176 3177 3178 3178 3178 3178 3178 3178 3178 3177 3176 3175 3174 3173 3172 3171 3171 3170 3169 3169 3169 3168 3168 3168 3167 3166 3164 3163 3162 3161 3161 3161 3161 3162 3163 3163 3163 3163 3163 3163 3163
3174 3175 3176 3176 3176 3176 3176 3177 3176 3176 3177 3177 3176 3175 3174 3173 3172 3171 3170 3169 3168 3168 3168 3168 3168 3167 3166 3165 3164 3163 3163 3162 3162 3161 3161 3162 3162 3162 3163 3163 3163 3163 3163
3172 3173 3173 3175 3175 3175 3175 3176 3176 3176 3175 3175 3174 3174 3174 3173 3172 3171 3170 3169 3168 3168 3168 3167 3167 3167 3166 3165 3164 3164 3163 3162 3162 3162 3161 3161 3162 3161 3161 3162 3162 3162 3162
3171 3172 3172 3172 3173 3174 3174 3175 3175 3175 3175 3174 3173 3173 3172 3171 3171 3170 3170 3169 3168 3168 3167 3167 3167 3166 3165 3165 3164 3163 3162 3162 3162 3161 3161 3161 3161 3161 3161 3161 3161 3161 3162
3170 3170 3171 3171 3171 3171 3172 3172 3172 3172 3172 3172 3172 3171 3170 3170 3169 3169 3168 3168 3167 3167 3166 3166 3165 3165 3165 3164 3164 3163 3162 3162 3161 3161 3160 3160 3161 3161 3161 3161 3161 3161 3161
3168 3168 3169 3169 3170 3169 3169 3170 3170 3170 3170 3170 3170 3169 3169 3168 3168 3167 3166 3166 3166 3165 3165 3164 3164 3164 3164 3163 3163 3162 3161 3161 3161 3161 3160 3159 3159 3160 3160 3160 3160 3160 3160
3165 3165 3166 3166 3167 3167 3167 3167 3167 3168 3167 3167 3167 3166 3166 3165 3164 3164 3164 3163 3163 3163 3162 3162 3162 3162 3162 3162 3161 3160 3160 3159 3159 3159 3158 3158 3158 3158 3158 3158 3158 3159 3159
3162 3162 3162 3162 3163 3163 3164 3164 3164 3163 3163 3163 3163 3163 3162 3162 3161 3161 3160 3160 3160 3159 3159 3160 3160 3160 3161 3161 3160 3159 3158 3158 3157 3157 3157 3156 3156 3156 3156 3156 3156 3156 3156
3160 3159 3159 3159 3159 3159 3158 3158 3158 3158 3158 3158 3158 3158 3159 3158 3158 3158 3157 3156 3156 3156 3156 3156 3156 3156 3157 3157 3157 3157 3156 3156 3155 3155 3155 3154 3154 3154 3154 3154 3154 3154 3154
3158 3158 3156 3155 3155 3154 3154 3154 3154 3153 3153 3153 3153 3153 3153 3153 3153 3153 3153 3152 3152 3152 3152 3151 3152 3152 3152 3153 3153 3153 3153 3153 3153 3153 3153 3152 3152 3151 3151 3152 3152 3151 3152
3154 3154 3153 3152 3151 3150 3149 3149 3148 3148 3147 3147 3147 3147 3147 3147 3148 3148 3148 3148 3147 3147 3147 3147 3147 3147 3148 3148 3149 3149 3150 3149 3149 3149 3150 3149 3149 3149 3148 3148 3149 3149 3149
3152 3151 3149 3149 3148 3146 3144 3143 3142 3141 3141 3140 3140 3141 3140 3140 3141 3142 3142 3142 3142 3142 3142 3142 3141 3141 3142 3143 3144 3145 3145 3145 3145 3145 3145 3146 3146 3146 3146 3146 3145 3145 3146
3146 3144 3143 3142 3141 3140 3139 3138 3136 3135 3134 3133 3133 3133 3133 3133 3133 3134 3135 3136 3136 3136 3136 3136 3136 3136 3137 3137 3138 3138 3139 3140 3141 3141 3141 3142 3142 3142 3143 3143 3143 3142 3142
3140 3139 3137 3136 3134 3132 3131 3130 3129 3128 3127 3125 3124 3124 3123 3123 3125 3126 3126 3127 3128 3129 3130 3130 3129 3130 3130 3131 3131 3132 3133 3134 3135 3135 3136 3137 3138 3138 3138 3138 3138 3138 3139
3133 3132 3130 3128 3127 3125 3123 3122 3121 3119 3118 3117 3116 3115 3114 3114 3115 3116 3117 3119 3119 3121 3121 3122 3122 3122 3123 3124 3125 3125 3127 3128 3128 3129 3130 3131 3132 3133 3133 3133 3134 3134 3134
3127 3125 3122 3120 3118 3115 3113 3111 3110 3108 3107 3107 3106 3106 3106 3106 3106 3107 3107 3108 3110 3112 3113 3114 3114 3115 3115 3116 3117 3118 3119 3120 3120 3121 3122 3124 3124 3125 3127 3127 3128 3129 3130
3120 3118 3115 3112 3109 3107 3104 3102 3100 3099 3097 3096 3096 3095 3094 3095 3095 3096 3097 3097 3099 3102 3103 3104 3106 3106 3107 3109 3110 3111 3110 3111 3110 3111 3112 3114 3116 3116 3118 3120 3121 3122 3123
3113 3110 3107 3104 3101 3098 3097 3094 3091 3088 3087 3086 3083 3082 3081 3082 3082 3083 3085 3087 3088 3090 3092 3095 3097 3098 3099 3100 3102 3102 3102 3102 3102 3099 3100 3103 3106 3107 3108 3111 3112 3115 3116
3107 3102 3098 3096 3094 3092 3090 3087 3083 3080 3077 3075 3072 3070 3068 3069 3070 3069 3071 3074 3077 3078 3081 3084 3087 3089 3090 3092 3092 3092 3094 3094 3094 3089 3090 3092 3094 3097 3100 3101 3104 3106 3109
3099 3095 3091 3090 3088 3084 3081 3078 3075 3071 3067 3064 3060 3057 3056 3055 3055 3056 3059 3062 3065 3067 3072 3075 3077 3079 3081 3083 3083 3084 3085 3085 3084 3081 3084 3085 3088 3087 3088 3093 3095 3099 3100
3094 3089 3087 3085 3082 3078 3074 3070 3065 3062 3059 3054 3051 3049 3047 3045 3043 3045 3047 3051 3053 3056 3060 3064 3067 3070 3072 3073 3075 3077 3076 3078 3077 3079 3079 3078 3078 3080 3081 3085 3088 3090 3092
3089 3085 3083 3081 3077 3073 3069 3065 3061 3056 3051 3047 3044 3042 3040 3037 3035 3035 3036 3039 3043 3047 3049 3053 3056 3059 3063 3065 3065 3066 3066 3068 3069 3070 3070 3072 3072 3073 3076 3077 3078 3080 3082
3084 3081 3079 3076 3073 3069 3065 3061 3057 3051 3047 3042 3039 3034 3031 3030 3027 3026 3027 3029 3034 3038 3040 3044 3047 3050 3052 3054 3055 3056 3058 3059 3060 3062 3064 3064 3065 3065 3069 3069 3069 3071 3073
3079 3078 3075 3072 3070 3066 3061 3058 3053 3048 3043 3037 3034 3031 3025 3023 3022 3020 3020 3023 3027 3029 3032 3033 3035 3038 3042 3045 3046 3048 3048 3049 3051 3054 3054 3056 3055 3058 3059 3060 3061 3061 3064
3076 3075 3072 3069 3067 3062 3058 3054 3050 3044 3038 3035 3031 3026 3021 3020 3020 3018 3017 3018 3020 3023 3025 3026 3015 3026 3027 3033 3034 3037 3040 3041 3042 3045 3045 3047 3047 3049 3050 3050 3052 3053 3055